Fort Lewis, WA
on Sunday, November 4, 2012

Sunday
Previous Day Next Day
Daily Summary
 ActualAverage (KOLM)Record (KOLM)
Temperature
Mean Temperature °F 46°F  
Max Temperature 65°F 54°F 74°F (1949)
Min Temperature 54°F 38°F 22°F (2002)
Degree Days
Heating Degree Days 6 19  
Month to date heating degree days 75  
Since 1 July heating degree days 869  
Cooling Degree Days 0 0  
Month to date cooling degree days 0  
Year to date cooling degree days 106  
Growing Degree Days10 (Base °F )  
Moisture
Dew Point 57°F   
Average Humidity 91    
Maximum Humidity 100    
Minimum Humidity 73    
Precipitation
Precipitation 0.06 in 0.24 in 1.94 in (1969)
Month to date precipitation 0.97  
Year to date precipitation 34.88  
Wind
Wind Speed 4 mph   
Max Wind Speed 14 mph   
Max Gust Speed 21 mph   
Visibility 9 miles   
Events Rain   

Key: T is trace of precipitation, MM is missing value
Source: NWS Daily Summary
Time(PST)TemperatureDew PointHumidity Pressure Visibility Wind DirectionWind SpeedGust SpeedPrecipitationEvents Conditions
12:23 AM 55.4°F 53.6°F 94% 30.18 in 10.0 miles NE 2.3 mph - N/A   Overcast
12:28 AM 55.4°F 53.6°F 94% 30.18 in 10.0 miles NE 1.2 mph - N/A   Overcast
12:58 AM 55.4°F 55.0°F 99% 30.18 in 10.0 miles ESE 4.6 mph - N/A   Overcast
1:58 AM 55.2°F 54.1°F 96% 30.19 in 10.0 miles Calm Calm - N/A   Overcast
1:58 AM 54.9°F 54.3°F 98% 30.19 in 10.0 miles East 1.2 mph - N/A   Overcast
2:13 AM 55.4°F 53.6°F 94% 30.18 in 10.0 miles Calm Calm - N/A   Overcast
2:33 AM 55.4°F 53.6°F 94% 30.18 in 10.0 miles Calm Calm - N/A   Overcast
2:43 AM 55.4°F 53.6°F 94% 30.18 in 9.0 miles Calm Calm - N/A   Overcast
2:48 AM 55.4°F 53.6°F 94% 30.18 in 9.0 miles SSE 1.2 mph - N/A   Overcast
2:58 AM 54.5°F 54.1°F 99% 30.19 in 9.0 miles Calm Calm - N/A   Overcast
3:03 AM 55.4°F 53.6°F 94% 30.18 in 10.0 miles Calm Calm - N/A   Overcast
3:28 AM 55.4°F 53.6°F 94% 30.18 in 9.0 miles ESE 1.2 mph - N/A   Overcast
3:38 AM 55.4°F 53.6°F 94% 30.19 in 10.0 miles NW 1.2 mph - N/A   Overcast
3:53 AM 55.4°F 53.6°F 94% 30.18 in 9.0 miles East 1.2 mph - N/A   Overcast
3:58 AM 54.7°F 54.3°F 99% 30.19 in 7.0 miles East 1.2 mph - N/A   Overcast
4:23 AM 55.4°F 53.6°F 94% 30.19 in 10.0 miles Calm Calm - N/A   Overcast
4:38 AM 55.4°F 53.6°F 94% 30.19 in 9.0 miles East 2.3 mph - N/A   Overcast
4:43 AM 55.4°F 53.6°F 94% 30.19 in 9.0 miles ESE 1.2 mph - N/A   Overcast
4:48 AM 55.4°F 55.4°F 100% 30.19 in 10.0 miles East 1.2 mph - N/A   Overcast
4:53 AM 55.4°F 55.4°F 100% 30.19 in 9.0 miles East 1.2 mph - N/A   Overcast
4:58 AM 54.9°F 54.5°F 99% 30.20 in 9.0 miles Calm Calm - N/A   Overcast
5:03 AM 55.4°F 55.4°F 100% 30.19 in 10.0 miles Calm Calm - N/A   Overcast
5:23 AM 55.4°F 55.4°F 100% 30.20 in 10.0 miles NE 2.3 mph - N/A   Overcast
5:43 AM 55.4°F 55.4°F 100% 30.19 in 10.0 miles ENE 3.5 mph - N/A   Overcast
5:58 AM 55.0°F 54.7°F 99% 30.20 in 10.0 miles Calm Calm - N/A   Overcast
6:28 AM 55.4°F 55.4°F 100% 30.18 in 10.0 miles SE 2.3 mph - N/A   Overcast
6:58 AM 54.7°F 54.3°F 99% 30.20 in 10.0 miles SSE 2.3 mph - 0.01 in   Overcast
7:58 AM 54.9°F 54.5°F 99% 30.22 in 10.0 miles SE 2.3 mph - N/A   Partly Cloudy
8:58 AM 56.7°F 55.8°F 97% 30.22 in 10.0 miles SE 3.5 mph - N/A   Overcast
9:58 AM 58.6°F 56.8°F 94% 30.23 in 8.0 miles Calm Calm - N/A   Overcast
10:58 AM 63.1°F 57.6°F 82% 30.25 in 6.0 miles South 4.6 mph - N/A   Haze
11:58 AM 64.9°F 57.0°F 75% 30.24 in 10.0 miles South 8.1 mph - N/A   Overcast
12:53 PM 64.4°F 57.2°F 77% 30.24 in 10.0 miles South 9.2 mph - N/A   Overcast
12:58 PM 64.9°F 57.0°F 75% 30.24 in 10.0 miles South 11.5 mph - N/A   Overcast
1:58 PM 64.6°F 57.2°F 77% 30.26 in 10.0 miles South 9.2 mph - N/A   Overcast
2:23 PM 64.4°F 57.2°F 77% 30.25 in 10.0 miles South 8.1 mph 18.4 mph N/A   Overcast
2:28 PM 64.4°F 57.2°F 77% 30.24 in 10.0 miles South 10.4 mph 18.4 mph N/A   Overcast
2:33 PM 64.4°F 57.2°F 77% 30.24 in 1.8 miles South 11.5 mph - N/A   Haze
2:38 PM 64.4°F 57.2°F 77% 30.25 in 0.8 miles South 11.5 mph - N/A   Haze
2:43 PM 64.4°F 57.2°F 77% 30.25 in 7.0 miles South 12.7 mph 19.6 mph N/A   Overcast
2:58 PM 64.8°F 57.2°F 76% 30.26 in 7.0 miles South 12.7 mph 20.7 mph N/A   Overcast
3:58 PM 64.9°F 56.7°F 74% 30.24 in 10.0 miles South 12.7 mph - N/A   Clear
4:58 PM 64.4°F 56.1°F 74% 30.23 in 7.0 miles South 10.4 mph - N/A   Overcast
5:13 PM 64.4°F 55.4°F 73% 30.23 in 7.0 miles SSE 10.4 mph - N/A   Overcast
5:58 PM 63.3°F 57.0°F 80% 30.26 in 7.0 miles South 5.8 mph - N/A   Overcast
6:58 PM 64.4°F 56.7°F 76% 30.25 in 8.0 miles SSE 9.2 mph - N/A   Overcast
7:23 PM 64.4°F 57.2°F 77% 30.23 in 8.0 miles SSE 11.5 mph - N/A   Overcast
7:53 PM 64.4°F 57.2°F 77% 30.23 in 8.0 miles South 10.4 mph - N/A   Overcast
7:58 PM 65.1°F 56.5°F 74% 30.24 in 8.0 miles South 12.7 mph 19.6 mph N/A   Overcast
8:38 PM 64.4°F 57.2°F 77% 30.24 in 9.0 miles SW 13.8 mph 20.7 mph N/A   Overcast
8:49 PM 62.6°F 59.0°F 88% 30.25 in 10.0 miles West 10.4 mph 19.6 mph N/A   Light Drizzle
8:52 PM 62.6°F 59.0°F 88% 30.26 in 10.0 miles West 10.4 mph - N/A   Light Drizzle
8:58 PM 61.7°F 59.2°F 91% 30.27 in 8.0 miles West 8.1 mph - 0.00 in   Light Drizzle
9:19 PM 60.8°F 60.8°F 100% 30.26 in 5.0 miles SSW 5.8 mph - N/A   Overcast
9:22 PM 60.8°F 60.8°F 100% 30.26 in 5.0 miles South 5.8 mph - N/A   Light Drizzle
9:32 PM 60.8°F 60.8°F 100% 30.26 in 6.0 miles South 8.1 mph - N/A Rain Light Rain
9:37 PM 60.8°F 60.8°F 100% 30.26 in 7.0 miles SSW 8.1 mph - N/A Rain Light Rain
9:42 PM 60.8°F 60.8°F 100% 30.26 in 8.0 miles SSW 8.1 mph - N/A   Light Drizzle
9:47 PM 60.8°F 60.8°F 100% 30.26 in 8.0 miles SSW 6.9 mph - N/A   Light Drizzle
9:49 PM 60.8°F 60.8°F 100% 30.26 in 9.0 miles South 8.1 mph - N/A   Overcast
9:52 PM 60.8°F 60.8°F 100% 30.26 in 8.0 miles SSW 10.4 mph - N/A Rain Light Rain
9:58 PM 61.0°F 60.1°F 97% 30.27 in 8.0 miles SSW 8.1 mph - 0.04 in   Light Drizzle
10:06 PM 60.8°F 60.8°F 100% 30.26 in 10.0 miles South 6.9 mph - N/A   Overcast
10:14 PM 60.8°F 60.8°F 100% 30.26 in 7.0 miles South 9.2 mph - N/A   Light Drizzle
10:15 PM 60.8°F 60.8°F 100% 30.26 in 6.0 miles South 8.1 mph - N/A   Light Drizzle
10:29 PM 60.8°F 59.0°F 94% 30.26 in 10.0 miles South 8.1 mph - N/A   Overcast
10:39 PM 60.8°F 59.0°F 94% 30.26 in 10.0 miles South 8.1 mph - N/A   Overcast
10:40 PM 60.8°F 59.0°F 94% 30.26 in 10.0 miles South 8.1 mph - N/A   Overcast
10:45 PM 60.8°F 59.0°F 94% 30.26 in 10.0 miles South 5.8 mph - N/A   Overcast
10:50 PM 60.8°F 59.0°F 94% 30.26 in 10.0 miles South 6.9 mph - N/A   Overcast
10:55 PM 60.8°F 59.0°F 94% 30.26 in 10.0 miles South 6.9 mph - N/A   Overcast
10:58 PM 60.4°F 59.9°F 98% 30.27 in 10.0 miles South 6.9 mph - 0.01 in   Overcast
Moon Phase
Nov. 04 Nov. 06 Nov. 13 Nov. 20 Nov. 28
Sunrise:06:58 AM (PST) Moon Rise:09:29 PM (PST)11/4
Sunset:04:48 PM (PST) Moon Set:11:49 AM (PST)11/4

Copyright © 2014 The Weather Underground, Inc.